North Myrtle Beach, SC

1:49 PM EDT on October 17, 2017 (GMT -0400)
Grand Strand

Weather History for KCRE - March, 2014

Change the Weather History Date:

Tuesday, March 11, 2014

  Actual Average Record
Temperature  
Mean Temperature 58 °F 53 °F  
Max Temperature 70 °F 63 °F 79 °F (1997)
Min Temperature 45 °F 43 °F 29 °F (1995)
Degree Days  
Heating Degree Days 7 12  
Month to date heating degree days 184 144  
Since 1 July heating degree days 2208 2088  
Cooling Degree Days 0 0  
Month to date cooling degree days 0 0  
Year to date cooling degree days 0 0  
Growing Degree Days 8 (Base 50)    
Moisture  
Dew Point 49 °F    
Average Humidity 69    
Maximum Humidity 93    
Minimum Humidity 44    
Precipitation  
Precipitation 0.00 in 0.13 in 0.01 in (2007)
Month to date precipitation 1.52 1.38  
Year to date precipitation 5.64 8.49  
Sea Level Pressure  
Sea Level Pressure 29.80 in    
Wind  
Wind Speed 9 mph (SW)    
Max Wind Speed 20 mph    
Max Gust Speed 26 mph    
Visibility 10 miles    
Events      
T = Trace of Precipitation, MM = Missing Value Source: NWS Daily Summary

Daily Weather History Graph

Daily Weather History Graph

Search for Another Location

Airport or City:

Trip Planner

Search our weather history database for the weather conditions in past years. The results will help you decide how hot, cold, wet, or windy it might be!

Date:

Astronomy

Mar. 11, 2014 Rise Set
Actual Time 7:30 AM EDT 7:19 PM EDT
Civil Twilight 7:05 AM EDT 7:44 PM EDT
Nautical Twilight 6:36 AM EDT 8:13 PM EDT
Astronomical Twilight 6:07 AM EDT 8:42 PM EDT
Moon 3:04 PM EDT (3/11) 4:12 AM EDT (3/11)
Length of Visible Light 12h 38m
Length of Day
11h 48m
Waxing Gibbous, 78% of the Moon is Illuminated
Mar 11
Waxing Gibbous
Mar 16
Full
Mar 23
Last Quarter
Mar 30
New
Apr 7
First Quarter

Hourly Weather History & Observations

Time (EDT) Temp. Dew Point Humidity Pressure Visibility Wind Dir Wind Speed Gust Speed Precip Events Conditions
12:53 AM 57.9 °F 46.9 °F 67% 29.86 in 10.0 mi WSW 6.9 mph - N/A   Clear
1:53 AM 53.1 °F 46.9 °F 80% 29.85 in 10.0 mi SSW 8.1 mph - N/A   Clear
2:53 AM 57.9 °F 46.9 °F 67% 29.85 in 10.0 mi WSW 6.9 mph - N/A   Clear
3:53 AM 54.0 °F 46.0 °F 75% 29.84 in 10.0 mi WSW 3.5 mph - N/A   Clear
4:53 AM 48.9 °F 46.0 °F 90% 29.82 in 10.0 mi Calm Calm - N/A   Clear
5:53 AM 48.0 °F 45.0 °F 89% 29.83 in 9.0 mi SSW 4.6 mph - N/A   Clear
6:53 AM 46.9 °F 44.1 °F 90% 29.83 in 10.0 mi South 3.5 mph - N/A   Clear
7:53 AM 46.0 °F 44.1 °F 93% 29.84 in 6.0 mi Calm Calm - N/A   Clear
8:53 AM 57.9 °F 46.9 °F 67% 29.85 in 10.0 mi WSW 6.9 mph - N/A   Clear
9:53 AM 64.0 °F 46.9 °F 54% 29.86 in 10.0 mi West 8.1 mph - N/A   Clear
10:53 AM 69.1 °F 46.9 °F 45% 29.86 in 10.0 mi West 8.1 mph - N/A   Clear
11:53 AM 66.0 °F 48.9 °F 54% 29.84 in 10.0 mi South 8.1 mph - N/A   Clear
12:53 PM 64.0 °F 48.9 °F 58% 29.83 in 10.0 mi SSW 12.7 mph - N/A   Clear
1:53 PM 66.0 °F 50.0 °F 56% 29.79 in 10.0 mi South 12.7 mph - N/A   Clear
2:53 PM 64.0 °F 50.0 °F 60% 29.76 in 10.0 mi SSW 17.3 mph - N/A   Clear
3:53 PM 64.9 °F 51.1 °F 61% 29.75 in 10.0 mi SSW 15.0 mph - N/A   Clear
4:53 PM 64.0 °F 50.0 °F 60% 29.73 in 10.0 mi SSW 12.7 mph - N/A   Clear
5:53 PM 62.1 °F 51.1 °F 67% 29.72 in 9.0 mi SW 18.4 mph - N/A   Clear
6:53 PM 61.0 °F 51.1 °F 70% 29.73 in 10.0 mi SW 16.1 mph - N/A   Clear
7:53 PM 59.0 °F 51.1 °F 75% 29.74 in 10.0 mi SW 13.8 mph - N/A   Clear
8:53 PM 59.0 °F 51.1 °F 75% 29.75 in 10.0 mi SSW 15.0 mph - N/A   Clear
9:53 PM 62.1 °F 52.0 °F 70% 29.76 in 10.0 mi SSW 9.2 mph - N/A   Clear
10:53 PM 59.0 °F 51.1 °F 75% 29.76 in 10.0 mi SSW 8.1 mph - N/A   Clear
11:53 PM 57.9 °F 51.1 °F 78% 29.75 in 7.0 mi SW 10.4 mph - N/A   Clear